sat.trackr.live / text

‹ back to catalog

ECHOSTAR 15

NORAD 36792 · 2010-034A

PAYLOAD ACTIVE UNKNOWN

§ Identity

Operator
Country
US
Launch date
2010-07-10
Launch site
TYMSC
Launch vehicle
Mass (kg)
RCS (m²)
6.31

Purposes: comms

External: N2YO · Heavens-Above · Gunter

§ Orbital elements

Epoch: 2026-05-25T03:42:38.615040Z

Period
1,436.09 min
Inclination
0.0384°
Eccentricity
0.0001912
Mean motion
1.00272266 rev/d
Perigee alt
35,778.4 km
Apogee alt
35,794.5 km
Semi-major
42,164.6 km
B*
0.0000e+0
RAAN
85.5004°
Arg perigee
319.9880°
Mean anomaly
134.1172°
Rev number
5,809

§ Raw data

ECHOSTAR 151 36792U 10034A   26145.15461360 -.00000003  00000+0  00000+0 0  99912 36792   0.0384  85.5004 0001912 319.9880 134.1172  1.00272266 58094

JSON: /api/v1/satellites/36792 · /tle

For live sub-satellite position, see the globe view (requires WebGL).

§ Visibility from observer

Set your observer location to see the next 7 days of passes ≥ 10°. The values pass through the URL so the page stays shareable.

No JS? Fill the form by hand. The geolocation button needs JavaScript.